Time,TemperatureF,DewpointF,PressureIn,WindDirection,WindDirectionDegrees,WindSpeedMPH,WindSpeedGustMPH,Humidity,HourlyPrecipIn,Conditions,Clouds,dailyrainin,SoftwareType,DateUTC
2013-05-30 00:03:00,51.0,51.0,30.00,South,189,0.0,4.0,99,0.00,,,-99.99,,2013-05-30 04:03:00,
2013-05-30 00:13:00,51.0,51.0,30.00,South,189,0.0,4.0,99,0.00,,,-99.99,,2013-05-30 04:13:00,
2013-05-30 00:23:00,50.0,50.0,29.98,SSW,212,0.0,5.0,99,0.00,,,-99.99,,2013-05-30 04:23:00,
2013-05-30 00:33:00,50.0,50.0,29.98,SSW,212,0.0,2.0,99,0.00,,,-99.99,,2013-05-30 04:33:00,
2013-05-30 00:42:00,50.0,50.0,29.98,SSW,212,0.0,2.0,99,0.00,,,-99.99,,2013-05-30 04:42:00,
2013-05-30 00:53:00,50.0,50.0,29.98,SSW,212,0.0,1.0,99,0.00,,,-99.99,,2013-05-30 04:53:00,
2013-05-30 01:02:00,50.0,50.0,29.98,SSW,212,0.0,0.0,99,0.00,,,-99.99,,2013-05-30 05:02:00,
2013-05-30 01:12:00,50.0,50.0,29.98,SSW,212,0.0,0.0,99,0.00,,,-99.99,,2013-05-30 05:12:00,
2013-05-30 01:22:00,50.0,50.0,29.98,SSW,212,0.0,0.0,99,0.00,,,-99.99,,2013-05-30 05:22:00,
2013-05-30 01:32:00,50.0,50.0,29.97,SSW,212,0.0,1.0,99,0.00,,,-99.99,,2013-05-30 05:32:00,
2013-05-30 01:42:00,50.0,50.0,29.97,SSW,212,0.0,1.0,99,0.00,,,-99.99,,2013-05-30 05:42:00,
2013-05-30 01:52:00,50.0,50.0,29.96,SSW,213,0.0,2.0,99,0.00,,,-99.99,,2013-05-30 05:52:00,
2013-05-30 02:01:00,50.0,50.0,29.97,SSW,213,0.0,1.0,99,0.00,,,-99.99,,2013-05-30 06:01:00,
2013-05-30 02:12:00,50.0,50.0,29.97,SSW,213,0.0,1.0,99,0.00,,,-99.99,,2013-05-30 06:12:00,
2013-05-30 02:22:00,50.0,50.0,29.96,SSW,213,0.0,0.0,99,0.00,,,-99.99,,2013-05-30 06:22:00,
2013-05-30 02:32:00,50.0,50.0,29.97,SSW,213,0.0,0.0,99,0.00,,,-99.99,,2013-05-30 06:32:00,
2013-05-30 02:42:00,50.0,50.0,29.97,SSW,213,0.0,0.0,99,0.00,,,-99.99,,2013-05-30 06:42:00,
2013-05-30 02:52:00,50.0,50.0,29.96,SSW,213,0.0,0.0,99,0.00,,,-99.99,,2013-05-30 06:52:00,
2013-05-30 03:01:00,50.0,50.0,29.95,SSW,213,0.0,0.0,99,0.00,,,-99.99,,2013-05-30 07:01:00,
2013-05-30 03:12:00,50.0,50.0,29.95,SSW,213,0.0,0.0,99,0.00,,,-99.99,,2013-05-30 07:12:00,
2013-05-30 03:22:00,50.0,50.0,29.93,SSW,213,0.0,0.0,99,0.00,,,-99.99,,2013-05-30 07:22:00,
2013-05-30 03:32:00,50.0,50.0,29.94,SSW,213,0.0,0.0,99,0.00,,,-99.99,,2013-05-30 07:32:00,
2013-05-30 03:42:00,50.0,50.0,29.94,SSW,213,0.0,0.0,99,0.00,,,-99.99,,2013-05-30 07:42:00,
2013-05-30 03:52:00,50.0,50.0,29.95,SSW,213,0.0,0.0,99,0.00,,,-99.99,,2013-05-30 07:52:00,
2013-05-30 04:02:00,50.0,50.0,29.95,SSW,213,0.0,0.0,99,0.00,,,-99.99,,2013-05-30 08:02:00,
2013-05-30 04:11:00,50.0,50.0,29.95,SSW,213,0.0,0.0,99,0.00,,,-99.99,,2013-05-30 08:11:00,
2013-05-30 04:22:00,50.0,50.0,29.95,SSW,213,0.0,0.0,99,0.00,,,-99.99,,2013-05-30 08:22:00,
2013-05-30 04:32:00,50.0,50.0,29.95,SSW,213,0.0,0.0,99,0.00,,,-99.99,,2013-05-30 08:32:00,
2013-05-30 04:42:00,50.0,50.0,29.95,SSW,213,0.0,0.0,99,0.00,,,-99.99,,2013-05-30 08:42:00,
2013-05-30 04:52:00,50.0,50.0,29.95,SSW,213,0.0,0.0,99,0.00,,,-99.99,,2013-05-30 08:52:00,
2013-05-30 05:01:00,50.0,50.0,29.95,SSW,213,0.0,0.0,99,0.00,,,-99.99,,2013-05-30 09:01:00,
2013-05-30 05:11:00,50.0,50.0,29.95,SSW,213,0.0,0.0,99,0.00,,,-99.99,,2013-05-30 09:11:00,
2013-05-30 05:21:00,51.0,51.0,29.95,NW,321,0.0,0.0,99,0.00,,,-99.99,,2013-05-30 09:21:00,
2013-05-30 05:33:00,51.0,51.0,29.95,NW,321,0.0,0.0,99,0.00,,,-99.99,,2013-05-30 09:33:00,
2013-05-30 05:42:00,51.0,51.0,29.95,NW,321,0.0,0.0,99,0.00,,,-99.99,,2013-05-30 09:42:00,
2013-05-30 05:53:00,51.0,51.0,29.95,NW,321,0.0,0.0,99,0.00,,,-99.99,,2013-05-30 09:53:00,
2013-05-30 06:03:00,51.0,51.0,29.96,NW,321,0.0,0.0,99,0.00,,,-99.99,,2013-05-30 10:03:00,
2013-05-30 06:13:00,51.0,51.0,29.96,NW,321,0.0,0.0,99,0.00,,,-99.99,,2013-05-30 10:13:00,
2013-05-30 06:23:00,51.0,51.0,29.95,NW,321,0.0,0.0,99,0.00,,,-99.99,,2013-05-30 10:23:00,
2013-05-30 06:33:00,51.0,51.0,29.95,NW,321,0.0,0.0,99,0.00,,,-99.99,,2013-05-30 10:33:00,
2013-05-30 06:42:00,51.0,51.0,29.95,NW,321,0.0,0.0,99,0.00,,,-99.99,,2013-05-30 10:42:00,
2013-05-30 06:52:00,52.0,52.0,29.95,NW,321,0.0,0.0,99,0.00,,,-99.99,,2013-05-30 10:52:00,
2013-05-30 07:03:00,53.0,53.0,29.95,NW,321,0.0,0.0,99,0.00,,,-99.99,,2013-05-30 11:03:00,
2013-05-30 07:12:00,53.0,53.0,29.95,NW,321,0.0,0.0,99,0.00,,,-99.99,,2013-05-30 11:12:00,
2013-05-30 07:22:00,53.0,53.0,29.96,NW,321,0.0,0.0,99,0.00,,,-99.99,,2013-05-30 11:22:00,
2013-05-30 07:32:00,53.0,53.0,29.96,NW,321,0.0,1.0,99,0.00,,,-99.99,,2013-05-30 11:32:00,
2013-05-30 07:42:00,53.0,53.0,29.96,NW,321,0.0,1.0,99,0.00,,,-99.99,,2013-05-30 11:42:00,
2013-05-30 07:52:00,55.0,55.0,29.96,NW,316,3.0,4.0,99,0.00,,,-99.99,,2013-05-30 11:52:00,
2013-05-30 08:02:00,56.0,56.0,29.96,WNW,299,0.0,5.0,99,0.00,,,-99.99,,2013-05-30 12:02:00,
2013-05-30 08:11:00,56.0,56.0,29.96,WNW,299,0.0,5.0,99,0.00,,,-99.99,,2013-05-30 12:11:00,
2013-05-30 08:22:00,57.0,57.0,29.97,NW,312,2.0,7.0,100,0.00,,,-99.99,,2013-05-30 12:22:00,
2013-05-30 08:32:00,57.0,57.0,29.97,NNW,346,4.0,6.0,99,0.00,,,-99.99,,2013-05-30 12:32:00,
2013-05-30 08:42:00,57.0,57.0,29.97,NNW,346,4.0,6.0,99,0.00,,,-99.99,,2013-05-30 12:42:00,
2013-05-30 08:52:00,57.0,57.0,29.97,North,360,0.0,6.0,99,0.00,,,-99.99,,2013-05-30 12:52:00,
2013-05-30 09:01:00,58.0,58.0,29.98,NNW,348,1.0,4.0,99,0.00,,,-99.99,,2013-05-30 13:01:00,
2013-05-30 09:11:00,58.0,58.0,29.98,NNW,348,1.0,4.0,99,0.00,,,-99.99,,2013-05-30 13:11:00,
2013-05-30 09:22:00,60.0,59.0,29.98,NW,325,1.0,6.0,98,0.00,,,-99.99,,2013-05-30 13:22:00,
2013-05-30 09:32:00,61.0,60.0,29.98,NW,309,1.0,6.0,95,0.00,,,-99.99,,2013-05-30 13:32:00,
2013-05-30 09:42:00,61.0,60.0,29.98,NW,309,1.0,6.0,95,0.00,,,-99.99,,2013-05-30 13:42:00,
2013-05-30 09:52:00,62.0,60.0,29.98,NNW,331,0.0,5.0,93,0.00,,,-99.99,,2013-05-30 13:52:00,
2013-05-30 10:02:00,64.0,61.0,29.98,North,351,0.0,3.0,91,0.00,,,-99.99,,2013-05-30 14:02:00,
2013-05-30 10:11:00,64.0,61.0,29.98,North,351,0.0,3.0,91,0.00,,,-99.99,,2013-05-30 14:11:00,
2013-05-30 10:22:00,65.0,62.0,29.98,NNW,334,2.0,4.0,91,0.00,,,-99.99,,2013-05-30 14:22:00,
2013-05-30 10:32:00,69.0,64.0,29.97,NNW,347,3.0,6.0,83,0.00,,,-99.99,,2013-05-30 14:32:00,
2013-05-30 10:42:00,69.0,64.0,29.97,NNW,347,3.0,6.0,83,0.00,,,-99.99,,2013-05-30 14:42:00,
2013-05-30 10:52:00,71.0,63.0,29.97,NW,322,3.0,7.0,77,0.00,,,-99.99,,2013-05-30 14:52:00,
2013-05-30 11:01:00,71.0,64.0,29.97,NW,311,2.0,11.0,78,0.00,,,-99.99,,2013-05-30 15:01:00,
2013-05-30 11:11:00,71.0,64.0,29.97,NW,311,2.0,11.0,78,0.00,,,-99.99,,2013-05-30 15:11:00,
2013-05-30 11:22:00,72.0,64.0,29.97,NW,321,11.0,11.0,76,0.00,,,-99.99,,2013-05-30 15:22:00,
2013-05-30 11:33:00,73.0,64.0,29.97,WNW,301,3.0,10.0,74,0.00,,,-99.99,,2013-05-30 15:33:00,
2013-05-30 11:42:00,74.0,65.0,29.97,WNW,297,0.0,12.0,73,0.00,,,-99.99,,2013-05-30 15:42:00,
2013-05-30 11:53:00,74.0,65.0,29.97,WNW,297,0.0,12.0,73,0.00,,,-99.99,,2013-05-30 15:53:00,
2013-05-30 12:03:00,75.0,65.0,29.96,NNW,331,2.0,6.0,71,0.00,,,-99.99,,2013-05-30 16:03:00,
2013-05-30 12:12:00,75.0,65.0,29.96,NNW,331,2.0,6.0,71,0.00,,,-99.99,,2013-05-30 16:12:00,
2013-05-30 12:23:00,77.0,65.0,29.96,NW,305,0.0,7.0,66,0.00,,,-99.99,,2013-05-30 16:23:00,
2013-05-30 12:33:00,77.0,66.0,29.96,WNW,286,5.0,10.0,69,0.00,,,-99.99,,2013-05-30 16:33:00,
2013-05-30 12:42:00,77.0,66.0,29.96,WNW,286,5.0,10.0,69,0.00,,,-99.99,,2013-05-30 16:42:00,
2013-05-30 12:53:00,76.0,65.0,29.95,WNW,282,1.0,7.0,68,0.00,,,-99.99,,2013-05-30 16:53:00,
2013-05-30 13:02:00,77.0,65.0,29.95,NW,318,7.0,14.0,67,0.00,,,-99.99,,2013-05-30 17:02:00,
2013-05-30 13:12:00,77.0,65.0,29.95,NW,318,7.0,14.0,67,0.00,,,-99.99,,2013-05-30 17:12:00,
2013-05-30 13:22:00,78.0,66.0,29.95,WNW,294,6.0,11.0,66,0.00,,,-99.99,,2013-05-30 17:22:00,
2013-05-30 13:32:00,76.0,65.0,29.95,West,280,5.0,12.0,70,0.00,,,-99.99,,2013-05-30 17:32:00,
2013-05-30 13:42:00,76.0,65.0,29.95,West,280,5.0,12.0,70,0.00,,,-99.99,,2013-05-30 17:42:00,
2013-05-30 13:52:00,77.0,66.0,29.95,WNW,287,4.0,10.0,68,0.00,,,-99.99,,2013-05-30 17:52:00,
2013-05-30 14:02:00,77.0,67.0,29.95,West,270,0.0,8.0,71,0.00,,,-99.99,,2013-05-30 18:02:00,
2013-05-30 14:11:00,77.0,67.0,29.95,West,270,0.0,8.0,71,0.00,,,-99.99,,2013-05-30 18:11:00,
2013-05-30 14:22:00,77.0,66.0,29.95,WSW,258,4.0,7.0,70,0.00,,,-99.99,,2013-05-30 18:22:00,
2013-05-30 14:32:00,78.0,65.0,29.94,NW,325,2.0,13.0,64,0.00,,,-99.99,,2013-05-30 18:32:00,
2013-05-30 14:42:00,78.0,65.0,29.94,NW,325,2.0,13.0,64,0.00,,,-99.99,,2013-05-30 18:42:00,
2013-05-30 14:52:00,78.0,64.0,29.94,West,268,2.0,12.0,62,0.00,,,-99.99,,2013-05-30 18:52:00,
2013-05-30 15:02:00,78.0,63.0,29.94,NW,311,5.0,8.0,61,0.00,,,-99.99,,2013-05-30 19:02:00,
2013-05-30 15:12:00,78.0,63.0,29.94,NW,311,5.0,8.0,61,0.00,,,-99.99,,2013-05-30 19:12:00,
2013-05-30 15:23:00,79.0,63.0,29.93,WNW,297,9.0,12.0,58,0.00,,,-99.99,,2013-05-30 19:23:00,
2013-05-30 15:32:00,80.0,64.0,29.93,WNW,288,4.0,11.0,58,0.00,,,-99.99,,2013-05-30 19:32:00,
2013-05-30 15:42:00,80.0,64.0,29.93,WNW,288,4.0,11.0,58,0.00,,,-99.99,,2013-05-30 19:42:00,
2013-05-30 15:53:00,81.0,62.0,29.92,NW,313,3.0,13.0,53,0.00,,,-99.99,,2013-05-30 19:53:00,
2013-05-30 16:02:00,81.0,62.0,29.92,WNW,298,3.0,10.0,53,0.00,,,-99.99,,2013-05-30 20:02:00,
2013-05-30 16:11:00,81.0,62.0,29.92,WNW,298,3.0,10.0,53,0.00,,,-99.99,,2013-05-30 20:11:00,
2013-05-30 16:22:00,81.0,62.0,29.93,WNW,288,4.0,8.0,53,0.00,,,-99.99,,2013-05-30 20:22:00,
2013-05-30 16:33:00,81.0,62.0,29.93,WNW,299,3.0,12.0,52,0.00,,,-99.99,,2013-05-30 20:33:00,
2013-05-30 16:42:00,81.0,62.0,29.93,WNW,299,3.0,12.0,52,0.00,,,-99.99,,2013-05-30 20:42:00,
2013-05-30 16:52:00,81.0,63.0,29.92,WNW,291,2.0,8.0,54,0.00,,,-99.99,,2013-05-30 20:52:00,
2013-05-30 17:01:00,81.0,63.0,29.92,WNW,301,4.0,7.0,54,0.00,,,-99.99,,2013-05-30 21:01:00,
2013-05-30 17:11:00,81.0,63.0,29.92,WNW,301,4.0,7.0,54,0.00,,,-99.99,,2013-05-30 21:11:00,
2013-05-30 17:22:00,82.0,62.0,29.92,WNW,296,2.0,12.0,51,0.00,,,-99.99,,2013-05-30 21:22:00,
2013-05-30 17:33:00,81.0,62.0,29.92,WNW,287,6.0,11.0,52,0.00,,,-99.99,,2013-05-30 21:33:00,
2013-05-30 17:43:00,81.0,62.0,29.92,WNW,287,6.0,11.0,52,0.00,,,-99.99,,2013-05-30 21:43:00,
2013-05-30 17:53:00,80.0,61.0,29.92,WNW,283,2.0,11.0,52,0.00,,,-99.99,,2013-05-30 21:53:00,
2013-05-30 18:02:00,80.0,61.0,29.93,NNW,334,6.0,9.0,53,0.00,,,-99.99,,2013-05-30 22:02:00,
2013-05-30 18:12:00,80.0,61.0,29.93,NNW,334,6.0,9.0,53,0.00,,,-99.99,,2013-05-30 22:12:00,
2013-05-30 18:23:00,81.0,61.0,29.93,NW,326,4.0,11.0,51,0.00,,,-99.99,,2013-05-30 22:23:00,
2013-05-30 18:33:00,81.0,61.0,29.93,NW,311,2.0,11.0,50,0.00,,,-99.99,,2013-05-30 22:33:00,
2013-05-30 18:42:00,81.0,60.0,29.93,NW,326,7.0,8.0,49,0.00,,,-99.99,,2013-05-30 22:42:00,
2013-05-30 18:52:00,81.0,60.0,29.93,NW,326,7.0,8.0,49,0.00,,,-99.99,,2013-05-30 22:52:00,
2013-05-30 19:02:00,80.0,60.0,29.93,West,280,0.0,7.0,51,0.00,,,-99.99,,2013-05-30 23:02:00,
2013-05-30 19:11:00,80.0,60.0,29.93,West,280,0.0,7.0,51,0.00,,,-99.99,,2013-05-30 23:11:00,
2013-05-30 19:22:00,79.0,61.0,29.94,West,275,0.0,6.0,55,0.00,,,-99.99,,2013-05-30 23:22:00,
2013-05-30 19:32:00,77.0,64.0,29.94,SW,224,0.0,1.0,64,0.00,,,-99.99,,2013-05-30 23:32:00,
2013-05-30 19:41:00,77.0,64.0,29.94,SW,224,0.0,1.0,64,0.00,,,-99.99,,2013-05-30 23:41:00,
2013-05-30 19:52:00,75.0,64.0,29.95,West,276,0.0,1.0,69,0.00,,,-99.99,,2013-05-30 23:52:00,
2013-05-30 20:01:00,74.0,64.0,29.95,NW,326,0.0,0.0,70,0.00,,,-99.99,,2013-05-31 00:01:00,
2013-05-30 20:11:00,74.0,64.0,29.95,NW,326,0.0,0.0,70,0.00,,,-99.99,,2013-05-31 00:11:00,
2013-05-30 20:22:00,73.0,64.0,29.95,NW,326,0.0,0.0,74,0.00,,,-99.99,,2013-05-31 00:22:00,
2013-05-30 20:32:00,71.0,64.0,29.96,NW,326,0.0,0.0,78,0.00,,,-99.99,,2013-05-31 00:32:00,
2013-05-30 20:42:00,70.0,64.0,29.96,NW,326,0.0,0.0,80,0.00,,,-99.99,,2013-05-31 00:42:00,
2013-05-30 20:52:00,70.0,64.0,29.96,NW,326,0.0,0.0,80,0.00,,,-99.99,,2013-05-31 00:52:00,
2013-05-30 21:01:00,68.0,63.0,29.97,NW,326,0.0,0.0,83,0.00,,,-99.99,,2013-05-31 01:01:00,
2013-05-30 21:12:00,68.0,63.0,29.97,NW,326,0.0,0.0,83,0.00,,,-99.99,,2013-05-31 01:12:00,
2013-05-30 21:21:00,67.0,63.0,29.97,NW,326,0.0,0.0,86,0.00,,,-99.99,,2013-05-31 01:21:00,
2013-05-30 21:32:00,67.0,63.0,29.98,NW,326,0.0,0.0,87,0.00,,,-99.99,,2013-05-31 01:32:00,
2013-05-30 21:42:00,65.0,62.0,29.98,NW,326,0.0,0.0,89,0.00,,,-99.99,,2013-05-31 01:42:00,
2013-05-30 21:52:00,65.0,62.0,29.98,NW,326,0.0,0.0,89,0.00,,,-99.99,,2013-05-31 01:52:00,
2013-05-30 22:02:00,64.0,61.0,29.97,NW,326,0.0,0.0,91,0.00,,,-99.99,,2013-05-31 02:02:00,
2013-05-30 22:11:00,64.0,61.0,29.97,NW,326,0.0,0.0,91,0.00,,,-99.99,,2013-05-31 02:11:00,
2013-05-30 22:22:00,64.0,61.0,29.98,NW,326,0.0,0.0,91,0.00,,,-99.99,,2013-05-31 02:22:00,
2013-05-30 22:32:00,63.0,61.0,29.98,NW,326,0.0,0.0,92,0.00,,,-99.99,,2013-05-31 02:32:00,
2013-05-30 22:42:00,63.0,61.0,29.98,NW,326,0.0,0.0,92,0.00,,,-99.99,,2013-05-31 02:42:00,
2013-05-30 22:51:00,62.0,60.0,29.98,NW,326,0.0,0.0,94,0.00,,,-99.99,,2013-05-31 02:51:00,
2013-05-30 23:01:00,62.0,60.0,29.99,NW,326,0.0,0.0,94,0.00,,,-99.99,,2013-05-31 03:01:00,
2013-05-30 23:11:00,62.0,60.0,29.99,NW,326,0.0,0.0,94,0.00,,,-99.99,,2013-05-31 03:11:00,
2013-05-30 23:21:00,62.0,60.0,29.99,NW,326,0.0,0.0,94,0.00,,,-99.99,,2013-05-31 03:21:00,
2013-05-30 23:33:00,61.0,59.0,29.98,NW,326,0.0,0.0,94,0.00,,,-99.99,,2013-05-31 03:33:00,
2013-05-30 23:43:00,61.0,59.0,29.98,NW,326,0.0,0.0,94,0.00,,,-99.99,,2013-05-31 03:43:00,
2013-05-30 23:53:00,61.0,59.0,29.99,NW,326,0.0,0.0,94,0.00,,,-99.99,,2013-05-31 03:53:00,